{"data":{"norad_id":57222,"intl_designator":"2023-094E","name":"STARLINK-5870","alt_names":[],"object_type":"PAYLOAD","status":"ACTIVE","operator":null,"country":"US","launch_date":"2023-07-07","launch_site_code":"AFWTR","launch_vehicle":null,"mission":null,"orbit_class":"UNKNOWN","rcs_meters":null,"size_class":null,"mass_kg":null,"dimensions":null,"purposes":["comms"],"wikipedia_slug":null,"has_3d_model":false,"image_url":null,"decayed_at":null,"tle_current":{"epoch":"2026-05-24T23:02:59.412768Z","epoch_age_seconds":71846,"freshness":"FRESH","line1":"1 57222U 23094E   26144.96040987  .00000496  00000+0  27555-4 0  9992","line2":"2 57222  43.0019 319.6817 0001361 252.0900 107.9804 15.27577368159411","mean_motion":15.27577368,"eccentricity":0.0001361,"inclination_deg":43.0019,"raan_deg":319.6817,"arg_perigee_deg":252.09,"mean_anomaly_deg":107.9804,"bstar":2.7555e-5,"rev_number":15941,"period_min":94.266911134284,"perigee_km":482.12316870553,"apogee_km":483.99078570612,"semimajor_km":6861.1939772058,"source":"CELESTRAK","updated_at":"2026-05-25T13:38:18.252278Z"}}}